Regional Weather Roundup
Issued by NWS

Home | Current Version | Previous Version | Text Only | Print | Product List | Glossary Off
Versions: 1 2 3 4 5 6 7 8 9 10 11 12 13 14 15 16 17 18 19 20 21 22 23 24 25 26 27 28 29 30 31 32 33 34 35 36 37 38 39 40 41 42 43 44 45 46 47 48 49 50

000
ASUS43 KFSD 190210
RWRSD

WEATHER ROUNDUP FOR SOUTH DAKOTA
NATIONAL WEATHER SERVICE SIOUX FALLS SD
800 PM CST WED JAN 18 2017

NOTE: "FAIR" INDICATES FEW OR NO CLOUDS BELOW 12,000 FEET WITH NO
SIGNIFICANT WEATHER AND/OR OBSTRUCTIONS TO VISIBILITY.


SDZ001>005-009-010-012>017-190300-
NORTHWEST AND NORTH CENTRAL SOUTH DAKOTA

CITY           SKY/WX    TMP DP  RH WIND       PRES   REMARKS
BUFFALO          N/A     41  22  46 NW7       29.55F
FAITH            N/A     24  19  81 S8        29.62S WCI  15
MOBRIDGE       CLOUDY    24  17  74 SE9       29.64F WCI  14
$$

SDZ012>016-024>037-041>051-057-063-072>074-190300-
SOUTHWEST AND SOUTH CENTRAL SOUTH DAKOTA

CITY           SKY/WX    TMP DP  RH WIND       PRES   REMARKS
RAPID CTY ARPT CLOUDY    26  21  81 N5        29.60F WCI  20
PIERRE         CLOUDY    25  20  81 E6        29.66F WCI  18
CUSTER         CLOUDY    37  14  38 SW3       29.67F
ELLSWORTH AFB  CLOUDY    32  25  74 N10       29.60S WCI  24
PHILIP         CLOUDY    24  21  88 CALM      29.63F
PINE RIDGE     CLOUDY    36  27  69 W3        29.66S
SPEARFISH      FAIR      37  28  70 S7        29.62F
WINNER         FAIR      45  24  43 S14       29.67F
$$

SDZ004>011-016>023-039-040-190300-
NORTHEAST SOUTH DAKOTA

CITY           SKY/WX    TMP DP  RH WIND       PRES   REMARKS
ABERDEEN       CLOUDY    19  16  88 S6        29.71F WCI  11
WATERTOWN      CLOUDY    28  26  92 S7        29.73F WCI  21
BROOKINGS      CLOUDY    34  32  92 S10       29.74F WCI  26
SISSETON         N/A     32  27  81 S6        29.72S WCI  26
$$

SDZ017-020-022-023-036>040-048>070-190300-
SOUTHEAST SOUTH DAKOTA

CITY           SKY/WX    TMP DP  RH WIND       PRES   REMARKS
SIOUX FALLS    CLEAR     42  38  85 S15       29.77F
HURON          CLOUDY    32  30  92 SE7       29.71S WCI  26
CHAMBERLAIN    CLOUDY    34  29  83 SE3       29.68F
MITCHELL       CLOUDY    37  34  89 S10       29.73F
YANKTON        CLEAR     39  34  81 S8        29.78S
$$

ABBREVIATIONS USED IN REMARKS
   TC - TEMPERATURE IN CELSIUS
  WCI - WIND CHILL INDEX
   HX - HEAT INDEX
  VSB - VISIBILITY





USA.gov is the U.S. government's official web portal to all federal, state and local government web resources and services.